User: anonymous   Login
Location: Mentone
(34.5413°N, 85.5351°W)
Time: 05:37:47
(UTC-05:00)
Language:

Centaur AC-72 - Orbit

View from above orbital plane
View from above orbital plane
View from above satellite
View from above satellite

Ground track
Ground track

The orbit data is extracted from the following two-line orbital elements,

1 21907U 92013B   15090.23870067 -.00000235  00000-0  00000+0 0  9992
2 21907 018.9833 168.7392 6948471 039.9303 006.7932 02.25606986190017
Epoch (UTC): 31 March 2015 05:43:43
Eccentricity: 0.6948471
inclination: 18.9833°
perigee height: 1115 km
apogee height: 35241 km
right ascension of ascending node: 168.7392°
argument of perigee: 39.9303°
revolutions per day: 2.25606986
mean anomaly at epoch: 6.7932°
orbit number at epoch: 19001

The dashed part of the orbit path shows where the satellite is in the earth's shadow,  

DLR